This is the latest recevied weather packets stored in our database for station/object K5FEP. If no packets are shown the sender has not sent any weather packets the latest 10 day(s).
| Time | Temp. | Humidity | Pressure | Rain* | Wind** | Luminosity | Snow |
|---|---|---|---|---|---|---|---|
| 1777464616 | 16.11° C | 86% | 1013.6 hPa | 0 mm | - | 172 W/m² | - |
| 1777464313 | 16.11° C | 87% | 1013.7 hPa | 0 mm | - | 150 W/m² | - |
| 1777464008 | 16.11° C | 87% | 1013.7 hPa | 0 mm | - | 143 W/m² | - |
| 1777463703 | 15.56° C | 88% | 1013.7 hPa | 0 mm | - | 134 W/m² | - |
| 1777463398 | 15.56° C | 89% | 1013.9 hPa | 0 mm | - | 104 W/m² | - |
| 1777463095 | 15.56° C | 90% | 1013.8 hPa | 0 mm | - | 77 W/m² | - |
| 1777462790 | 15.56° C | 90% | 1013.7 hPa | 0 mm | - | 73 W/m² | - |
| 1777462485 | 15° C | 91% | 1014 hPa | 0 mm | - | 65 W/m² | - |
| 1777462183 | 15° C | 92% | 1013.9 hPa | 0 mm | - | 56 W/m² | - |
| 1777461879 | 15° C | 93% | 1014.1 hPa | 0 mm | - | 53 W/m² | - |
| 1777461576 | 15° C | 93% | 1014 hPa | 0 mm | - | 45 W/m² | - |
| 1777461271 | 14.44° C | 93% | 1014 hPa | 0 mm | - | 28 W/m² | - |
| 1777460967 | 14.44° C | 93% | 1014.2 hPa | 0 mm | - | 18 W/m² | - |
| 1777460663 | 14.44° C | 93% | 1014.2 hPa | 0 mm | - | 16 W/m² | - |
| 1777460359 | 14.44° C | 93% | 1013.8 hPa | 0 mm | - | 22 W/m² | - |
| 1777460055 | 14.44° C | 93% | 1013.7 hPa | 0 mm | - | 18 W/m² | - |
| 1777459752 | 14.44° C | 94% | 1013.9 hPa | 0 mm | - | 9 W/m² | - |
| 1777459449 | 13.89° C | 94% | 1013.8 hPa | 0 mm | - | 7 W/m² | - |
| 1777459147 | 13.89° C | 94% | 1013.7 hPa | 0 mm | - | 5 W/m² | - |
| 1777458843 | 13.89° C | 94% | 1013.6 hPa | 0 mm | - | 3 W/m² | - |
| 1777458540 | 13.89° C | 94% | 1013.5 hPa | 0 mm | - | 1 W/m² | - |
| 1777458237 | 13.89° C | 94% | 1013.5 hPa | 0 mm | - | 1 W/m² | - |
| 1777457932 | 13.89° C | 94% | 1013.3 hPa | 0 mm | - | 0 W/m² | - |
| 1777457629 | 13.89° C | 94% | 1013.3 hPa | 0 mm | - | 0 W/m² | - |
| 1777457329 | 13.89° C | 94% | 1013 hPa | 0 mm | - | 0 W/m² | - |
* Rain latest hour (hover to see other rain measurements)
** Current wind speed in m/s (hover to see current wind gust speed)